Notices

What’s New in latest Release from January 14th 2021:

·       In Historical Hourly Data Report, users can switch between Local Standard Time (LST) and Universal Time Coordinates (UTC) time.

·       In Historical Hourly Data Report, we have an addition of a new column to display hourly precipitation data for the stations where the data are available, from 2001 onwards.

·       Expanded the Search Options of the Canadian Historical Weather Radar, users now able to select 24 hours (1 image every hour) image viewing duration.

Please note that the IDF dataset is available through this link: Intensity-Duration-Frequency (IDF) Files .

Hourly Data Report for October 28, 2018

CORAL HARBOUR A
NUNAVUT
Current Station Operator: NAVCAN

64°11'36.000" N
83°21'34.000" W
62.20 m
2301002
71915
YZS

Download Data

Hourly Data (October 2018)
Hourly Data Report for October 28, 2018
TIME
LST
Temp Definition
°C
Dew Point Definition
°C
Rel Hum Definition
%
Precip. Amount Definition
mm

Wind Dir Definition
10's deg

Wind Spd Definition
km/h
Visibility Definition
km
Stn Press Definition
kPa
Hmdx Definition


Wind Chill Definition


Weather Definition


00:00 -2.8 -3.3 96   17 29 2.4 100.15   -10 Snow,Blowing Snow
01:00 -2.7 -3.2 96   17 28 2.4 100.14   -10 Snow,Blowing Snow
02:00 -2.7 -3.2 96   17 27 2.4 100.12   -10 Snow,Blowing Snow
03:00 -2.5 -3.0 97   16 27 2.4 100.07   -9 Snow,Blowing Snow
04:00 -2.3 -2.7 97   16 23 1.0 100.05   -9 Snow
05:00 -1.9 -2.3 98   16 22 2.4 100.04   -8 Snow
06:00 -1.6 -1.9 98   17 25 1.2 100.02   -8 Snow
07:00 -1.6 -1.9 98   16 21 12.9 100.01   -7 Snow
08:00 -1.4 -1.7 98   16 19 1.2 100.02   -7 Snow
09:00 -1.3 -1.5 98   16 14 0.4 100.04   -6 Heavy Snow
10:00 -1.2 -1.5 98   16 13 0.4 100.07   -5 Heavy Snow
11:00 -1.1 -1.4 98   16 12 0.2 100.09   -5 Snow,Freezing Fog
12:00 -0.9 -1.2 98   19 16 1.2 100.13   -6 Snow,Fog
13:00 -0.9 -1.2 98   20 15 3.2 100.17   -6 Snow,Fog
14:00 -0.9 -1.2 98   21 13 12.9 100.22   -5 Snow
15:00 -1.1 -1.4 98   17 9 4.8 100.26   -4 Snow,Fog
16:00 -1.1 -1.4 98   16 4 0.4 100.31   -2 Snow,Freezing Fog
17:00 -1.4 -1.6 98   14 5 0.4 100.35   -3 Snow,Freezing Fog
18:00 -1.4 -1.6 98   13 7 0.4 100.40   -4 Snow,Freezing Fog
19:00 -1.3 -1.5 98   14 6 0.4 100.43   -4 Snow,Freezing Fog
20:00 -1.1 -1.3 98   9 7 0.4 100.48   -4 Snow,Freezing Fog
21:00 -1.1 -1.4 98   9 10 0.4 100.52   -5 Snow,Freezing Fog
22:00 -1.1 -1.3 98   12 9 0.4 100.55   -4 Snow,Freezing Fog
23:00 -1.1 -1.3 98   10 9 0.4 100.55   -4 Freezing Fog

Notes on Data Quality.

Legend

  • E = Estimated
  • M = Missing
  • NA = Not Available*
  • [empty] = Indicates an unobserved value
Date modified: